Find Starlink 30779

NORAD ID: 58160 Int'l Des: 2023-166 Owner: SPXS Country: US Constellation: starlink operational
LEOCIRCULAR

現在のビュー

3D地球を読み込み中...

About Starlink 30779

Starlink 30779 (NORAD 58160) is a starlink constellation satellite (v2 mini) launched Oct 29, 2023 by SPXS of US. It operates in LEO, CIRCULAR orbit with a mass of 730.00 kg.

次回通過

Passes for default location (London). Set your location on the main map for personalized predictions.

高度履歴

Loading altitude history...

軌道要素

1 58160U 23166L 26263.62266714 -.00000176 00000-0 60776-5 0 9997
2 58160 53.1590 32.8079 0001189 91.7311 268.3826 15.31700282163043
Epoch: Sep 20, 2026 • Age: 14 hours

現在のステータス

高度 481.6 km
遠地点 / 近地点 N/A
速度 7.62 km/s
衛星直下点 -32.84°S, 71.53°W
打ち上げ日 Oct 29, 2023
運用期間 2.8 years
タイプ internet

技術仕様

分類 Payload
質量 730.00 kg
乾燥質量 700.00 kg
長さ 0.30 m
スパン 29.00 m
形状 ? Box + pan
製造者 SPXS
バスタイプ Starlink V2M
フェーズステータス In Orbit
所有者/国 SPXS/US

Most Searched